Time,TemperatureF,DewpointF,PressureIn,WindDirection,WindDirectionDegrees,WindSpeedMPH,WindSpeedGustMPH,Humidity,HourlyPrecipIn,Conditions,Clouds,dailyrainin,SoftwareType,DateUTC
2013-06-15 00:00:00,63.7,54.1,30.05,ENE,68,0.0,0.0,71,0.00,,CLR,0.00,VWS V12.08,2013-06-15 04:00:00,
2013-06-15 00:01:00,63.7,54.1,30.05,ENE,68,0.0,0.0,71,0.00,,CLR,0.00,VWS V12.08,2013-06-15 04:01:00,
2013-06-15 00:02:00,63.7,54.1,30.05,ENE,68,0.0,0.0,71,0.00,,CLR,0.00,VWS V12.08,2013-06-15 04:02:00,
2013-06-15 00:07:00,63.5,53.9,30.05,ENE,68,0.0,0.0,71,0.00,,CLR,0.00,VWS V12.08,2013-06-15 04:07:00,
2013-06-15 00:12:00,63.5,53.9,30.06,ENE,68,0.0,0.0,71,0.00,,CLR,0.00,VWS V12.08,2013-06-15 04:12:00,
2013-06-15 00:17:00,63.5,53.9,30.06,ENE,68,0.0,0.0,71,0.00,,CLR,0.00,VWS V12.08,2013-06-15 04:17:00,
2013-06-15 00:22:00,63.5,53.9,30.06,ENE,68,0.0,0.0,71,0.00,,CLR,0.00,VWS V12.08,2013-06-15 04:22:00,
2013-06-15 00:27:00,63.3,53.8,30.06,ENE,68,0.0,0.0,71,0.00,,CLR,0.00,VWS V12.08,2013-06-15 04:27:00,
2013-06-15 00:32:00,63.3,53.8,30.06,ENE,68,0.0,0.0,71,0.00,,CLR,0.00,VWS V12.08,2013-06-15 04:32:00,
2013-06-15 00:37:00,63.1,53.6,30.06,ENE,68,0.0,0.0,71,0.00,,CLR,0.00,VWS V12.08,2013-06-15 04:37:00,
2013-06-15 00:42:00,63.0,53.4,30.06,ENE,68,0.0,0.0,71,0.00,,CLR,0.00,VWS V12.08,2013-06-15 04:42:00,
2013-06-15 00:47:00,63.0,53.4,30.06,ENE,68,0.0,0.0,71,0.00,,CLR,0.00,VWS V12.08,2013-06-15 04:47:00,
2013-06-15 00:52:00,62.8,53.6,30.06,ENE,68,0.0,0.0,72,0.00,,CLR,0.00,VWS V12.08,2013-06-15 04:52:00,
2013-06-15 00:57:00,62.4,53.3,30.06,ENE,68,0.0,0.0,72,0.00,,CLR,0.00,VWS V12.08,2013-06-15 04:57:00,
2013-06-15 01:02:00,62.4,53.3,30.06,ENE,68,0.0,0.0,72,0.00,,CLR,0.00,VWS V12.08,2013-06-15 05:02:00,
2013-06-15 01:07:00,62.4,53.3,30.06,ENE,68,0.0,0.0,72,0.00,,CLR,0.00,VWS V12.08,2013-06-15 05:07:00,
2013-06-15 01:12:00,62.2,53.1,30.06,ENE,68,0.0,0.0,72,0.00,,CLR,0.00,VWS V12.08,2013-06-15 05:12:00,
2013-06-15 01:17:00,62.2,53.1,30.07,ENE,68,0.0,0.0,72,0.00,,CLR,0.00,VWS V12.08,2013-06-15 05:17:00,
2013-06-15 01:22:00,61.9,53.1,30.07,ENE,68,0.0,0.0,73,0.00,,CLR,0.00,VWS V12.08,2013-06-15 05:22:00,
2013-06-15 01:27:00,61.9,53.1,30.07,ENE,68,0.0,0.0,73,0.00,,CLR,0.00,VWS V12.08,2013-06-15 05:27:00,
2013-06-15 01:32:00,61.9,53.1,30.07,ENE,68,0.0,0.0,73,0.00,,CLR,0.00,VWS V12.08,2013-06-15 05:32:00,
2013-06-15 01:37:00,61.7,53.3,30.07,NE,45,0.0,0.0,74,0.00,,CLR,0.00,VWS V12.08,2013-06-15 05:37:00,
2013-06-15 01:42:00,61.5,53.2,30.07,NE,45,0.0,0.0,74,0.00,,CLR,0.00,VWS V12.08,2013-06-15 05:42:00,
2013-06-15 01:47:00,61.5,53.5,30.07,NE,45,0.0,0.0,75,0.00,,CLR,0.00,VWS V12.08,2013-06-15 05:47:00,
2013-06-15 01:52:00,61.2,53.2,30.07,NE,45,0.0,0.0,75,0.00,,CLR,0.00,VWS V12.08,2013-06-15 05:52:00,
2013-06-15 01:57:00,61.0,53.0,30.07,NE,45,0.0,0.0,75,0.00,,CLR,0.00,VWS V12.08,2013-06-15 05:57:00,
2013-06-15 02:02:00,61.0,53.0,30.07,NE,45,0.0,0.0,75,0.00,,CLR,0.00,VWS V12.08,2013-06-15 06:02:00,
2013-06-15 02:07:00,60.6,53.0,30.07,ENE,68,0.0,0.0,76,0.00,,CLR,0.00,VWS V12.08,2013-06-15 06:07:00,
2013-06-15 02:12:00,60.6,53.0,30.08,ENE,68,0.0,0.0,76,0.00,,CLR,0.00,VWS V12.08,2013-06-15 06:12:00,
2013-06-15 02:17:00,60.4,52.8,30.07,ENE,68,0.0,0.0,76,0.00,,CLR,0.00,VWS V12.08,2013-06-15 06:17:00,
2013-06-15 02:22:00,60.4,52.8,30.07,ENE,68,0.0,0.0,76,0.00,,CLR,0.00,VWS V12.08,2013-06-15 06:22:00,
2013-06-15 02:27:00,60.4,53.2,30.07,ENE,68,0.0,0.0,77,0.00,,CLR,0.00,VWS V12.08,2013-06-15 06:27:00,
2013-06-15 02:32:00,60.4,53.2,30.07,ENE,68,0.0,0.0,77,0.00,,CLR,0.00,VWS V12.08,2013-06-15 06:32:00,
2013-06-15 02:37:00,60.4,53.2,30.07,ENE,68,0.0,0.0,77,0.00,,CLR,0.00,VWS V12.08,2013-06-15 06:37:00,
2013-06-15 02:42:00,60.4,52.8,30.07,ENE,68,0.0,0.0,76,0.00,,CLR,0.00,VWS V12.08,2013-06-15 06:42:00,
2013-06-15 02:47:00,60.4,52.8,30.07,ENE,68,0.0,0.0,76,0.00,,CLR,0.00,VWS V12.08,2013-06-15 06:47:00,
2013-06-15 02:52:00,60.4,53.2,30.07,ENE,68,0.0,0.0,77,0.00,,CLR,0.00,VWS V12.08,2013-06-15 06:52:00,
2013-06-15 02:57:00,60.4,53.2,30.07,ENE,68,0.0,0.0,77,0.00,,CLR,0.00,VWS V12.08,2013-06-15 06:57:00,
2013-06-15 03:02:00,60.4,53.2,30.07,ENE,68,0.0,0.0,77,0.00,,CLR,0.00,VWS V12.08,2013-06-15 07:02:00,
2013-06-15 03:07:00,59.4,52.5,30.07,ENE,68,0.0,0.0,78,0.00,,CLR,0.00,VWS V12.08,2013-06-15 07:07:00,
2013-06-15 03:12:00,59.2,52.0,30.07,ENE,68,0.0,0.0,77,0.00,,CLR,0.00,VWS V12.08,2013-06-15 07:12:00,
2013-06-15 03:17:00,59.2,52.3,30.06,ENE,68,0.0,0.0,78,0.00,,CLR,0.00,VWS V12.08,2013-06-15 07:17:00,
2013-06-15 03:22:00,59.2,52.3,30.06,ENE,68,0.0,0.0,78,0.00,,CLR,0.00,VWS V12.08,2013-06-15 07:22:00,
2013-06-15 03:27:00,58.8,52.0,30.06,ENE,68,0.0,0.0,78,0.00,,CLR,0.00,VWS V12.08,2013-06-15 07:27:00,
2013-06-15 03:32:00,58.8,52.3,30.06,ENE,68,0.0,0.0,79,0.00,,CLR,0.00,VWS V12.08,2013-06-15 07:32:00,
2013-06-15 03:37:00,58.8,52.3,30.06,ENE,68,0.0,0.0,79,0.00,,CLR,0.00,VWS V12.08,2013-06-15 07:37:00,
2013-06-15 03:42:00,58.8,52.3,30.06,ENE,68,0.0,0.0,79,0.00,,CLR,0.00,VWS V12.08,2013-06-15 07:42:00,
2013-06-15 03:47:00,58.8,52.3,30.06,ENE,68,0.0,0.0,79,0.00,,CLR,0.00,VWS V12.08,2013-06-15 07:47:00,
2013-06-15 03:52:00,58.8,52.3,30.06,NE,45,0.0,0.0,79,0.00,,CLR,0.00,VWS V12.08,2013-06-15 07:52:00,
2013-06-15 03:57:00,58.6,52.2,30.06,NE,45,0.0,0.0,79,0.00,,CLR,0.00,VWS V12.08,2013-06-15 07:57:00,
2013-06-15 04:02:00,58.5,52.0,30.06,NE,45,0.0,0.0,79,0.00,,CLR,0.00,VWS V12.08,2013-06-15 08:02:00,
2013-06-15 04:07:00,58.3,51.8,30.06,NE,45,0.0,0.0,79,0.00,,CLR,0.00,VWS V12.08,2013-06-15 08:07:00,
2013-06-15 04:12:00,58.1,52.0,30.06,NE,45,0.0,0.0,80,0.00,,CLR,0.00,VWS V12.08,2013-06-15 08:12:00,
2013-06-15 04:17:00,58.1,52.0,30.06,NE,45,0.0,0.0,80,0.00,,CLR,0.00,VWS V12.08,2013-06-15 08:17:00,
2013-06-15 04:22:00,57.9,51.8,30.06,NE,45,0.0,0.0,80,0.00,,CLR,0.00,VWS V12.08,2013-06-15 08:22:00,
2013-06-15 04:27:00,57.9,51.8,30.06,NE,45,0.0,0.0,80,0.00,,CLR,0.00,VWS V12.08,2013-06-15 08:27:00,
2013-06-15 04:32:00,57.7,51.6,30.06,NE,45,0.0,0.0,80,0.00,,CLR,0.00,VWS V12.08,2013-06-15 08:32:00,
2013-06-15 04:37:00,57.7,52.0,30.07,NE,45,0.0,0.0,81,0.00,,CLR,0.00,VWS V12.08,2013-06-15 08:37:00,
2013-06-15 04:42:00,57.7,52.0,30.06,NE,45,0.0,0.0,81,0.00,,CLR,0.00,VWS V12.08,2013-06-15 08:42:00,
2013-06-15 04:47:00,57.6,51.8,30.07,NE,45,0.0,0.0,81,0.00,,CLR,0.00,VWS V12.08,2013-06-15 08:47:00,
2013-06-15 04:52:00,57.4,51.6,30.07,NE,45,0.0,0.0,81,0.00,,CLR,0.00,VWS V12.08,2013-06-15 08:52:00,
2013-06-15 04:57:00,57.4,51.6,30.07,NE,45,0.0,0.0,81,0.00,,CLR,0.00,VWS V12.08,2013-06-15 08:57:00,
2013-06-15 05:02:00,57.4,51.6,30.08,NE,45,0.0,0.0,81,0.00,,CLR,0.00,VWS V12.08,2013-06-15 09:02:00,
2013-06-15 05:07:00,57.0,51.3,30.08,NE,45,0.0,0.0,81,0.00,,CLR,0.00,VWS V12.08,2013-06-15 09:07:00,
2013-06-15 05:12:00,57.0,51.3,30.09,NE,45,0.0,0.0,81,0.00,,CLR,0.00,VWS V12.08,2013-06-15 09:12:00,
2013-06-15 05:17:00,56.8,51.1,30.09,NE,45,0.0,0.0,81,0.00,,CLR,0.00,VWS V12.08,2013-06-15 09:17:00,
2013-06-15 05:22:00,56.8,51.4,30.09,NE,45,0.0,0.0,82,0.00,,CLR,0.00,VWS V12.08,2013-06-15 09:22:00,
2013-06-15 05:27:00,56.8,51.4,30.09,NE,45,0.0,0.0,82,0.00,,CLR,0.00,VWS V12.08,2013-06-15 09:27:00,
2013-06-15 05:32:00,56.8,51.4,30.10,NE,45,0.0,0.0,82,0.00,,CLR,0.00,VWS V12.08,2013-06-15 09:32:00,
2013-06-15 05:38:00,56.8,51.4,30.10,NE,45,0.0,0.0,82,0.00,,CLR,0.00,VWS V12.08,2013-06-15 09:38:00,
2013-06-15 05:43:00,56.8,51.4,30.10,NE,45,0.0,0.0,82,0.00,,CLR,0.00,VWS V12.08,2013-06-15 09:43:00,
2013-06-15 05:48:00,56.8,51.4,30.10,NE,45,0.0,0.0,82,0.00,,CLR,0.00,VWS V12.08,2013-06-15 09:48:00,
2013-06-15 05:53:00,56.8,51.4,30.11,NE,45,0.0,0.0,82,0.00,,CLR,0.00,VWS V12.08,2013-06-15 09:53:00,
2013-06-15 05:58:00,56.8,51.4,30.11,ENE,68,0.0,0.0,82,0.00,,CLR,0.00,VWS V12.08,2013-06-15 09:58:00,
2013-06-15 06:03:00,57.0,51.6,30.11,ENE,68,0.0,0.0,82,0.00,,CLR,0.00,VWS V12.08,2013-06-15 10:03:00,
2013-06-15 06:08:00,57.0,51.6,30.11,ENE,68,0.0,0.0,82,0.00,,CLR,0.00,VWS V12.08,2013-06-15 10:08:00,
2013-06-15 06:13:00,57.0,51.6,30.11,ENE,68,0.0,0.0,82,0.00,,CLR,0.00,VWS V12.08,2013-06-15 10:13:00,
2013-06-15 06:18:00,57.0,51.6,30.11,ENE,68,0.0,0.0,82,0.00,,CLR,0.00,VWS V12.08,2013-06-15 10:18:00,
2013-06-15 06:23:00,57.0,51.6,30.11,ENE,68,0.0,0.0,82,0.00,,CLR,0.00,VWS V12.08,2013-06-15 10:23:00,
2013-06-15 06:28:00,57.0,51.6,30.11,ENE,68,0.0,0.0,82,0.00,,CLR,0.00,VWS V12.08,2013-06-15 10:28:00,
2013-06-15 06:33:00,57.0,51.6,30.11,ENE,68,0.0,0.0,82,0.00,,CLR,0.00,VWS V12.08,2013-06-15 10:33:00,
2013-06-15 06:38:00,57.0,51.6,30.11,ENE,68,0.0,0.0,82,0.00,,CLR,0.00,VWS V12.08,2013-06-15 10:38:00,
2013-06-15 06:43:00,57.0,51.6,30.11,ENE,68,0.0,0.0,82,0.00,,CLR,0.00,VWS V12.08,2013-06-15 10:43:00,
2013-06-15 06:48:00,57.0,51.6,30.12,ENE,68,0.0,0.0,82,0.00,,CLR,0.00,VWS V12.08,2013-06-15 10:48:00,
2013-06-15 06:53:00,56.8,51.4,30.11,ENE,68,0.0,0.0,82,0.00,,CLR,0.00,VWS V12.08,2013-06-15 10:53:00,
2013-06-15 06:58:00,56.8,51.7,30.11,ENE,68,0.0,0.0,83,0.00,,CLR,0.00,VWS V12.08,2013-06-15 10:58:00,
2013-06-15 07:03:00,57.2,52.1,30.12,ENE,68,0.0,0.0,83,0.00,,CLR,0.00,VWS V12.08,2013-06-15 11:03:00,
2013-06-15 07:08:00,57.4,52.3,30.12,ENE,68,0.0,0.0,83,0.00,,CLR,0.00,VWS V12.08,2013-06-15 11:08:00,
2013-06-15 07:13:00,57.4,52.3,30.12,ENE,68,0.0,0.0,83,0.00,,CLR,0.00,VWS V12.08,2013-06-15 11:13:00,
2013-06-15 07:18:00,57.6,52.4,30.12,ENE,68,0.0,0.0,83,0.00,,CLR,0.00,VWS V12.08,2013-06-15 11:18:00,
2013-06-15 07:23:00,57.7,52.6,30.12,ENE,68,0.0,0.0,83,0.00,,CLR,0.00,VWS V12.08,2013-06-15 11:23:00,
2013-06-15 07:28:00,57.9,52.8,30.12,ENE,68,0.0,0.0,83,0.00,,CLR,0.00,VWS V12.08,2013-06-15 11:28:00,
2013-06-15 07:33:00,57.9,52.8,30.11,ENE,68,0.0,0.0,83,0.00,,CLR,0.00,VWS V12.08,2013-06-15 11:33:00,
2013-06-15 07:38:00,58.3,53.2,30.12,ENE,68,0.0,0.0,83,0.00,,CLR,0.00,VWS V12.08,2013-06-15 11:38:00,
2013-06-15 07:43:00,58.5,53.3,30.12,ENE,68,0.0,0.0,83,0.00,,CLR,0.00,VWS V12.08,2013-06-15 11:43:00,
2013-06-15 07:48:00,58.8,53.7,30.12,ENE,68,0.0,0.0,83,0.00,,CLR,0.00,VWS V12.08,2013-06-15 11:48:00,
2013-06-15 07:53:00,58.8,53.7,30.12,ENE,68,0.0,0.0,83,0.00,,CLR,0.00,VWS V12.08,2013-06-15 11:53:00,
2013-06-15 07:58:00,59.4,54.5,30.13,NE,45,0.0,0.0,84,0.00,,CLR,0.00,VWS V12.08,2013-06-15 11:58:00,
2013-06-15 08:03:00,59.5,54.4,30.13,NNE,22,0.0,0.0,83,0.00,,CLR,0.00,VWS V12.08,2013-06-15 12:03:00,
2013-06-15 08:08:00,60.4,54.9,30.13,NNE,22,0.0,0.0,82,0.00,,CLR,0.00,VWS V12.08,2013-06-15 12:08:00,
2013-06-15 08:13:00,60.6,55.1,30.14,NW,315,0.0,0.0,82,0.00,,CLR,0.00,VWS V12.08,2013-06-15 12:13:00,
2013-06-15 08:18:00,60.6,54.8,30.14,NW,315,0.0,0.0,81,0.00,,CLR,0.00,VWS V12.08,2013-06-15 12:18:00,
2013-06-15 08:23:00,61.3,55.5,30.13,NW,315,0.0,0.0,81,0.00,,CLR,0.00,VWS V12.08,2013-06-15 12:23:00,
2013-06-15 08:28:00,61.7,55.5,30.14,NW,315,0.0,0.0,80,0.00,,CLR,0.00,VWS V12.08,2013-06-15 12:28:00,
2013-06-15 08:33:00,62.1,55.8,30.14,NW,315,0.0,0.0,80,0.00,,CLR,0.00,VWS V12.08,2013-06-15 12:33:00,
2013-06-15 08:38:00,62.1,55.8,30.15,NW,315,0.0,0.0,80,0.00,,CLR,0.00,VWS V12.08,2013-06-15 12:38:00,
2013-06-15 08:43:00,62.4,55.8,30.15,NW,315,0.0,0.0,79,0.00,,CLR,0.00,VWS V12.08,2013-06-15 12:43:00,
2013-06-15 08:48:00,63.0,56.0,30.15,NW,315,0.0,0.0,78,0.00,,CLR,0.00,VWS V12.08,2013-06-15 12:48:00,
2013-06-15 08:53:00,63.1,56.2,30.14,NW,315,0.0,0.0,78,0.00,,CLR,0.00,VWS V12.08,2013-06-15 12:53:00,
2013-06-15 08:58:00,63.3,55.6,30.14,NW,315,0.0,0.0,76,0.00,,CLR,0.00,VWS V12.08,2013-06-15 12:58:00,
2013-06-15 09:03:00,63.7,56.0,30.14,NW,315,0.0,0.0,76,0.00,,CLR,0.00,VWS V12.08,2013-06-15 13:03:00,
2013-06-15 09:08:00,63.7,56.0,30.14,NW,315,0.0,0.0,76,0.00,,CLR,0.00,VWS V12.08,2013-06-15 13:08:00,
2013-06-15 09:13:00,63.7,56.0,30.15,NW,315,0.0,0.0,76,0.00,,CLR,0.00,VWS V12.08,2013-06-15 13:13:00,
2013-06-15 09:18:00,64.2,56.5,30.15,WNW,292,1.8,1.8,76,0.00,,CLR,0.00,VWS V12.08,2013-06-15 13:18:00,
2013-06-15 09:23:00,64.4,56.3,30.15,NNW,338,0.0,0.0,75,0.00,,CLR,0.00,VWS V12.08,2013-06-15 13:23:00,
2013-06-15 09:28:00,64.6,56.1,30.15,WNW,292,0.0,0.0,74,0.00,,CLR,0.00,VWS V12.08,2013-06-15 13:28:00,
2013-06-15 09:33:00,64.9,56.5,30.15,West,270,0.0,0.0,74,0.00,,CLR,0.00,VWS V12.08,2013-06-15 13:33:00,
2013-06-15 09:38:00,65.1,56.6,30.15,West,270,0.0,0.0,74,0.00,,CLR,0.00,VWS V12.08,2013-06-15 13:38:00,
2013-06-15 09:43:00,65.5,57.0,30.14,West,270,0.0,0.0,74,0.00,,CLR,0.00,VWS V12.08,2013-06-15 13:43:00,
2013-06-15 09:48:00,66.2,57.3,30.14,West,270,0.0,0.0,73,0.00,,CLR,0.00,VWS V12.08,2013-06-15 13:48:00,
2013-06-15 09:53:00,66.4,57.1,30.14,West,270,0.0,0.0,72,0.00,,CLR,0.00,VWS V12.08,2013-06-15 13:53:00,
2013-06-15 09:58:00,66.7,57.4,30.14,WNW,292,2.5,2.5,72,0.00,,CLR,0.00,VWS V12.08,2013-06-15 13:58:00,
2013-06-15 10:03:00,67.3,57.6,30.14,WNW,292,0.0,1.8,71,0.00,,CLR,0.00,VWS V12.08,2013-06-15 14:03:00,
2013-06-15 10:08:00,67.6,57.9,30.15,WNW,292,0.0,1.8,71,0.00,,CLR,0.00,VWS V12.08,2013-06-15 14:08:00,
2013-06-15 10:13:00,67.8,57.7,30.15,West,270,0.0,1.8,70,0.00,,CLR,0.00,VWS V12.08,2013-06-15 14:13:00,
2013-06-15 10:18:00,68.2,58.0,30.14,West,270,0.0,1.8,70,0.00,,CLR,0.00,VWS V12.08,2013-06-15 14:18:00,
2013-06-15 10:23:00,68.7,58.5,30.15,NW,315,0.0,0.0,70,0.00,,CLR,0.00,VWS V12.08,2013-06-15 14:23:00,
2013-06-15 10:28:00,68.9,58.7,30.15,NW,315,0.0,0.0,70,0.00,,CLR,0.00,VWS V12.08,2013-06-15 14:28:00,
2013-06-15 10:33:00,69.3,59.1,30.14,NW,315,0.0,0.0,70,0.00,,CLR,0.00,VWS V12.08,2013-06-15 14:33:00,
2013-06-15 10:38:00,69.6,58.6,30.14,NW,315,0.0,0.0,68,0.00,,CLR,0.00,VWS V12.08,2013-06-15 14:38:00,
2013-06-15 10:43:00,70.3,58.9,30.14,NW,315,0.0,0.0,67,0.00,,CLR,0.00,VWS V12.08,2013-06-15 14:43:00,
2013-06-15 10:48:00,71.2,60.2,30.14,SW,225,0.0,0.0,68,0.00,,CLR,0.00,VWS V12.08,2013-06-15 14:48:00,
2013-06-15 10:53:00,71.8,60.7,30.14,WSW,248,0.0,0.0,68,0.00,,CLR,0.00,VWS V12.08,2013-06-15 14:53:00,
2013-06-15 10:58:00,72.5,59.6,30.14,West,270,0.0,0.0,64,0.00,,CLR,0.00,VWS V12.08,2013-06-15 14:58:00,
2013-06-15 11:03:00,72.9,60.0,30.14,WSW,248,0.0,2.0,64,0.00,,CLR,0.00,VWS V12.08,2013-06-15 15:03:00,
2013-06-15 11:08:00,73.6,60.2,30.13,West,270,0.0,2.0,63,0.00,,CLR,0.00,VWS V12.08,2013-06-15 15:08:00,
2013-06-15 11:13:00,74.1,60.7,30.13,West,270,0.0,2.0,63,0.00,,CLR,0.00,VWS V12.08,2013-06-15 15:13:00,
2013-06-15 11:18:00,74.5,60.6,30.13,West,270,0.0,2.0,62,0.00,,CLR,0.00,VWS V12.08,2013-06-15 15:18:00,
2013-06-15 11:23:00,74.5,61.5,30.13,WSW,248,0.0,0.0,64,0.00,,CLR,0.00,VWS V12.08,2013-06-15 15:23:00,
2013-06-15 11:28:00,74.3,61.3,30.13,SSW,202,0.0,0.0,64,0.00,,CLR,0.00,VWS V12.08,2013-06-15 15:28:00,
2013-06-15 11:33:00,73.9,60.6,30.12,SSW,202,0.0,0.0,63,0.00,,CLR,0.00,VWS V12.08,2013-06-15 15:33:00,
2013-06-15 11:38:00,74.1,61.2,30.12,SSE,158,0.0,0.0,64,0.00,,CLR,0.00,VWS V12.08,2013-06-15 15:38:00,
2013-06-15 11:43:00,74.1,62.0,30.13,ESE,112,0.0,1.8,66,0.00,,CLR,0.00,VWS V12.08,2013-06-15 15:43:00,
2013-06-15 11:48:00,74.3,60.9,30.13,NW,315,0.0,2.0,63,0.00,,CLR,0.00,VWS V12.08,2013-06-15 15:48:00,
2013-06-15 11:53:00,74.7,60.8,30.12,West,270,0.0,5.4,62,0.00,,CLR,0.00,VWS V12.08,2013-06-15 15:53:00,
2013-06-15 11:58:00,75.0,60.7,30.12,NNW,338,3.1,5.4,61,0.00,,CLR,0.00,VWS V12.08,2013-06-15 15:58:00,
2013-06-15 12:03:00,75.7,59.9,30.12,SE,135,0.0,1.1,58,0.00,,CLR,0.00,VWS V12.08,2013-06-15 16:03:00,
2013-06-15 12:08:00,76.1,60.8,30.12,North,0,0.9,2.5,59,0.00,,CLR,0.00,VWS V12.08,2013-06-15 16:08:00,
2013-06-15 12:13:00,76.8,60.5,30.12,North,0,0.0,4.9,57,0.00,,CLR,0.00,VWS V12.08,2013-06-15 16:13:00,
2013-06-15 12:18:00,77.2,60.3,30.12,SW,225,0.0,4.9,56,0.00,,CLR,0.00,VWS V12.08,2013-06-15 16:18:00,
2013-06-15 12:23:00,77.7,60.3,30.11,NW,315,0.9,4.5,55,0.00,,CLR,0.00,VWS V12.08,2013-06-15 16:23:00,
2013-06-15 12:28:00,77.9,61.0,30.11,ENE,68,0.7,4.5,56,0.00,,CLR,0.00,VWS V12.08,2013-06-15 16:28:00,
2013-06-15 12:33:00,78.4,61.0,30.11,NNW,338,0.0,4.5,55,0.00,,CLR,0.00,VWS V12.08,2013-06-15 16:33:00,
2013-06-15 12:38:00,78.6,61.1,30.11,WSW,248,0.0,4.5,55,0.00,,CLR,0.00,VWS V12.08,2013-06-15 16:38:00,
2013-06-15 12:43:00,79.0,59.9,30.11,WNW,292,0.0,6.7,52,0.00,,CLR,0.00,VWS V12.08,2013-06-15 16:43:00,
2013-06-15 12:48:00,79.3,63.3,30.11,NNE,22,0.0,6.7,58,0.00,,CLR,0.00,VWS V12.08,2013-06-15 16:48:00,
2013-06-15 12:53:00,79.9,62.8,30.11,NNE,22,2.5,6.7,56,0.00,,CLR,0.00,VWS V12.08,2013-06-15 16:53:00,
2013-06-15 12:58:00,80.4,61.7,30.11,NNW,338,0.0,6.7,53,0.00,,CLR,0.00,VWS V12.08,2013-06-15 16:58:00,
2013-06-15 13:03:00,80.6,61.4,30.11,NW,315,0.0,0.0,52,0.00,,CLR,0.00,VWS V12.08,2013-06-15 17:03:00,
2013-06-15 13:08:00,80.6,60.3,30.11,NE,45,0.0,0.9,50,0.00,,CLR,0.00,VWS V12.08,2013-06-15 17:08:00,
2013-06-15 13:13:00,80.8,62.6,30.11,NNW,338,0.4,2.9,54,0.00,,CLR,0.00,VWS V12.08,2013-06-15 17:13:00,
2013-06-15 13:18:00,80.8,62.1,30.11,NE,45,0.0,5.1,53,0.00,,CLR,0.00,VWS V12.08,2013-06-15 17:18:00,
2013-06-15 13:23:00,81.1,61.9,30.10,ENE,68,0.0,2.7,52,0.00,,CLR,0.00,VWS V12.08,2013-06-15 17:23:00,
2013-06-15 13:28:00,81.3,63.1,30.10,East,90,0.0,2.7,54,0.00,,CLR,0.00,VWS V12.08,2013-06-15 17:28:00,
2013-06-15 13:33:00,81.5,62.2,30.10,SE,135,0.0,2.7,52,0.00,,CLR,0.00,VWS V12.08,2013-06-15 17:33:00,
2013-06-15 13:38:00,81.7,61.8,30.10,NW,315,0.0,2.7,51,0.00,,CLR,0.00,VWS V12.08,2013-06-15 17:38:00,
2013-06-15 13:43:00,82.0,61.6,30.10,WNW,292,0.0,6.7,50,0.00,,CLR,0.00,VWS V12.08,2013-06-15 17:43:00,
2013-06-15 13:48:00,81.9,60.8,30.10,West,270,0.0,6.7,49,0.00,,CLR,0.00,VWS V12.08,2013-06-15 17:48:00,
2013-06-15 13:53:00,81.7,62.4,30.10,ENE,68,0.0,6.7,52,0.00,,CLR,0.00,VWS V12.08,2013-06-15 17:53:00,
2013-06-15 13:58:00,81.7,61.2,30.10,NNE,22,0.0,6.7,50,0.00,,CLR,0.00,VWS V12.08,2013-06-15 17:58:00,
2013-06-15 14:03:00,81.9,64.1,30.10,East,90,0.0,0.0,55,0.00,,CLR,0.00,VWS V12.08,2013-06-15 18:03:00,
2013-06-15 14:08:00,82.2,62.3,30.10,WSW,248,0.0,0.0,51,0.00,,CLR,0.00,VWS V12.08,2013-06-15 18:08:00,
2013-06-15 14:13:00,82.6,61.5,30.10,NW,315,0.0,6.9,49,0.00,,CLR,0.00,VWS V12.08,2013-06-15 18:13:00,
2013-06-15 14:18:00,82.8,62.2,30.09,NW,315,0.0,6.9,50,0.00,,CLR,0.00,VWS V12.08,2013-06-15 18:18:00,
2013-06-15 14:23:00,82.8,61.1,30.09,WNW,292,2.9,2.9,48,0.00,,CLR,0.00,VWS V12.08,2013-06-15 18:23:00,
2013-06-15 14:28:00,82.8,61.7,30.09,WNW,292,0.0,4.9,49,0.00,,CLR,0.00,VWS V12.08,2013-06-15 18:28:00,
2013-06-15 14:33:00,82.8,64.4,30.09,SE,135,2.0,4.9,54,0.00,,CLR,0.00,VWS V12.08,2013-06-15 18:33:00,
2013-06-15 14:38:00,83.1,65.3,30.09,East,90,0.0,4.9,55,0.00,,CLR,0.00,VWS V12.08,2013-06-15 18:38:00,
2013-06-15 14:43:00,83.1,62.6,30.08,NE,45,0.0,3.6,50,0.00,,CLR,0.00,VWS V12.08,2013-06-15 18:43:00,
2013-06-15 14:48:00,83.1,62.0,30.08,North,0,0.0,3.6,49,0.00,,CLR,0.00,VWS V12.08,2013-06-15 18:48:00,
2013-06-15 14:53:00,83.1,63.1,30.08,North,0,0.0,3.6,51,0.00,,CLR,0.00,VWS V12.08,2013-06-15 18:53:00,
2013-06-15 14:58:00,82.9,62.4,30.08,ENE,68,0.0,3.6,50,0.00,,CLR,0.00,VWS V12.08,2013-06-15 18:58:00,
2013-06-15 15:03:00,82.9,61.8,30.08,NW,315,0.0,2.0,49,0.00,,CLR,0.00,VWS V12.08,2013-06-15 19:03:00,
2013-06-15 15:08:00,82.9,61.8,30.08,NW,315,0.0,2.5,49,0.00,,CLR,0.00,VWS V12.08,2013-06-15 19:08:00,
2013-06-15 15:13:00,82.9,61.2,30.08,North,0,0.0,2.5,48,0.00,,CLR,0.00,VWS V12.08,2013-06-15 19:13:00,
2013-06-15 15:18:00,82.9,61.2,30.08,West,270,0.9,5.6,48,0.00,,CLR,0.00,VWS V12.08,2013-06-15 19:18:00,
2013-06-15 15:23:00,82.9,61.2,30.08,East,90,0.0,2.5,48,0.00,,CLR,0.00,VWS V12.08,2013-06-15 19:23:00,
2013-06-15 15:28:00,83.1,62.6,30.08,NW,315,0.0,4.9,50,0.00,,CLR,0.00,VWS V12.08,2013-06-15 19:28:00,
2013-06-15 15:33:00,83.5,61.8,30.08,NNW,338,0.0,4.9,48,0.00,,CLR,0.00,VWS V12.08,2013-06-15 19:33:00,
2013-06-15 15:38:00,83.3,61.0,30.09,NW,315,0.0,6.0,47,0.00,,CLR,0.00,VWS V12.08,2013-06-15 19:38:00,
2013-06-15 15:43:00,83.5,61.2,30.08,WNW,292,0.0,0.9,47,0.00,,CLR,0.00,VWS V12.08,2013-06-15 19:43:00,
2013-06-15 15:48:00,83.1,61.4,30.08,NE,45,0.0,0.9,48,0.00,,CLR,0.00,VWS V12.08,2013-06-15 19:48:00,
2013-06-15 15:53:00,83.1,62.6,30.08,NE,45,0.0,0.9,50,0.00,,CLR,0.00,VWS V12.08,2013-06-15 19:53:00,
2013-06-15 15:58:00,83.3,62.2,30.08,West,270,0.0,3.6,49,0.00,,CLR,0.00,VWS V12.08,2013-06-15 19:58:00,
2013-06-15 16:03:00,83.5,62.3,30.07,ENE,68,0.0,0.4,49,0.00,,CLR,0.00,VWS V12.08,2013-06-15 20:03:00,
2013-06-15 16:08:00,83.8,62.1,30.07,WNW,292,0.0,2.5,48,0.00,,CLR,0.00,VWS V12.08,2013-06-15 20:08:00,
2013-06-15 16:13:00,84.0,64.0,30.07,WNW,292,0.0,2.5,51,0.00,,CLR,0.00,VWS V12.08,2013-06-15 20:13:00,
2013-06-15 16:18:00,84.2,64.7,30.07,ENE,68,0.0,2.5,52,0.00,,CLR,0.00,VWS V12.08,2013-06-15 20:18:00,
2013-06-15 16:23:00,84.0,65.1,30.07,ENE,68,0.0,0.0,53,0.00,,CLR,0.00,VWS V12.08,2013-06-15 20:23:00,
2013-06-15 16:28:00,84.0,64.0,30.07,NE,45,0.9,0.9,51,0.00,,CLR,0.00,VWS V12.08,2013-06-15 20:28:00,
2013-06-15 16:33:00,84.4,63.2,30.07,ENE,68,0.0,2.0,49,0.00,,CLR,0.00,VWS V12.08,2013-06-15 20:33:00,
2013-06-15 16:38:00,84.0,65.1,30.07,ENE,68,0.0,2.9,53,0.00,,CLR,0.00,VWS V12.08,2013-06-15 20:38:00,
2013-06-15 16:43:00,84.0,64.0,30.06,East,90,0.0,0.0,51,0.00,,CLR,0.00,VWS V12.08,2013-06-15 20:43:00,
2013-06-15 16:48:00,84.0,65.1,30.06,ENE,68,0.0,0.0,53,0.00,,CLR,0.00,VWS V12.08,2013-06-15 20:48:00,
2013-06-15 16:53:00,83.7,65.8,30.06,East,90,0.0,0.0,55,0.00,,CLR,0.00,VWS V12.08,2013-06-15 20:53:00,
2013-06-15 16:58:00,83.8,63.8,30.07,NNE,22,0.0,0.4,51,0.00,,CLR,0.00,VWS V12.08,2013-06-15 20:58:00,
2013-06-15 17:03:00,84.0,63.4,30.06,West,270,0.0,0.0,50,0.00,,CLR,0.00,VWS V12.08,2013-06-15 21:03:00,
2013-06-15 17:08:00,84.2,64.1,30.06,WNW,292,0.0,0.0,51,0.00,,CLR,0.00,VWS V12.08,2013-06-15 21:08:00,
2013-06-15 17:13:00,84.4,62.6,30.06,WNW,292,0.0,0.0,48,0.00,,CLR,0.00,VWS V12.08,2013-06-15 21:13:00,
2013-06-15 17:18:00,84.4,63.2,30.06,ENE,68,0.0,1.1,49,0.00,,CLR,0.00,VWS V12.08,2013-06-15 21:18:00,
2013-06-15 17:23:00,84.6,64.5,30.06,ENE,68,0.0,0.0,51,0.00,,CLR,0.00,VWS V12.08,2013-06-15 21:23:00,
2013-06-15 17:28:00,84.6,62.7,30.06,NNW,338,0.0,3.6,48,0.00,,CLR,0.00,VWS V12.08,2013-06-15 21:28:00,
2013-06-15 17:33:00,84.4,64.8,30.06,ENE,68,0.0,3.6,52,0.00,,CLR,0.00,VWS V12.08,2013-06-15 21:33:00,
2013-06-15 17:38:00,84.4,63.7,30.06,ENE,68,0.0,3.6,50,0.00,,CLR,0.00,VWS V12.08,2013-06-15 21:38:00,
2013-06-15 17:43:00,84.6,62.7,30.06,NE,45,0.0,0.0,48,0.00,,CLR,0.00,VWS V12.08,2013-06-15 21:43:00,
2013-06-15 17:48:00,84.4,61.4,30.06,NE,45,0.0,2.2,46,0.00,,CLR,0.00,VWS V12.08,2013-06-15 21:48:00,
2013-06-15 17:53:00,84.4,63.7,30.05,ENE,68,0.0,2.2,50,0.00,,CLR,0.00,VWS V12.08,2013-06-15 21:53:00,
2013-06-15 17:58:00,84.4,64.3,30.05,ENE,68,0.0,2.2,51,0.00,,CLR,0.00,VWS V12.08,2013-06-15 21:58:00,
2013-06-15 18:03:00,84.4,64.8,30.06,ENE,68,0.0,0.0,52,0.00,,CLR,0.00,VWS V12.08,2013-06-15 22:03:00,
2013-06-15 18:08:00,84.0,65.6,30.05,ENE,68,0.0,0.0,54,0.00,,CLR,0.00,VWS V12.08,2013-06-15 22:08:00,
2013-06-15 18:13:00,84.2,64.7,30.05,ENE,68,0.0,0.0,52,0.00,,CLR,0.00,VWS V12.08,2013-06-15 22:13:00,
2013-06-15 18:18:00,84.0,65.6,30.05,East,90,0.0,0.0,54,0.00,,CLR,0.00,VWS V12.08,2013-06-15 22:18:00,
2013-06-15 18:23:00,84.0,66.1,30.05,East,90,0.0,0.0,55,0.00,,CLR,0.00,VWS V12.08,2013-06-15 22:23:00,
2013-06-15 18:28:00,84.0,65.6,30.05,East,90,0.0,1.8,54,0.00,,CLR,0.00,VWS V12.08,2013-06-15 22:28:00,
2013-06-15 18:33:00,83.8,64.9,30.05,East,90,0.0,2.0,53,0.00,,CLR,0.00,VWS V12.08,2013-06-15 22:33:00,
2013-06-15 18:38:00,83.5,63.5,30.05,North,0,2.7,6.0,51,0.00,,CLR,0.00,VWS V12.08,2013-06-15 22:38:00,
2013-06-15 18:43:00,83.1,63.7,30.05,NNE,22,0.0,0.0,52,0.00,,CLR,0.00,VWS V12.08,2013-06-15 22:43:00,
2013-06-15 18:48:00,82.9,65.1,30.06,NE,45,0.0,0.0,55,0.00,,CLR,0.00,VWS V12.08,2013-06-15 22:48:00,
2013-06-15 18:53:00,82.9,65.7,30.05,ENE,68,0.0,0.0,56,0.00,,CLR,0.00,VWS V12.08,2013-06-15 22:53:00,
2013-06-15 18:58:00,83.3,66.0,30.05,NE,45,0.0,0.0,56,0.00,,CLR,0.00,VWS V12.08,2013-06-15 22:58:00,
2013-06-15 19:03:00,84.9,65.3,30.05,North,0,0.0,1.6,52,0.00,,CLR,0.00,VWS V12.08,2013-06-15 23:03:00,
2013-06-15 19:08:00,86.5,66.3,30.05,North,0,0.0,1.6,51,0.00,,CLR,0.00,VWS V12.08,2013-06-15 23:08:00,
2013-06-15 19:13:00,87.8,66.3,30.06,North,0,0.0,1.6,49,0.00,,CLR,0.00,VWS V12.08,2013-06-15 23:13:00,
2013-06-15 19:18:00,88.9,67.3,30.06,North,0,0.0,1.6,49,0.00,,CLR,0.00,VWS V12.08,2013-06-15 23:18:00,
2013-06-15 19:23:00,90.0,67.0,30.06,ENE,68,0.0,1.1,47,0.00,,CLR,0.00,VWS V12.08,2013-06-15 23:23:00,
2013-06-15 19:28:00,89.4,66.6,30.06,ENE,68,0.0,1.1,47,0.00,,CLR,0.00,VWS V12.08,2013-06-15 23:28:00,
2013-06-15 19:33:00,87.1,65.6,30.06,East,90,0.0,1.1,49,0.00,,CLR,0.00,VWS V12.08,2013-06-15 23:33:00,
2013-06-15 19:38:00,84.0,64.5,30.06,ENE,68,0.0,1.1,52,0.00,,CLR,0.00,VWS V12.08,2013-06-15 23:38:00,
2013-06-15 19:43:00,82.2,63.9,30.06,ENE,68,0.0,0.0,54,0.00,,CLR,0.00,VWS V12.08,2013-06-15 23:43:00,
2013-06-15 19:48:00,80.8,63.6,30.06,ENE,68,0.0,0.0,56,0.00,,CLR,0.00,VWS V12.08,2013-06-15 23:48:00,
2013-06-15 19:53:00,79.5,63.0,30.06,East,90,0.0,0.0,57,0.00,,CLR,0.00,VWS V12.08,2013-06-15 23:53:00,
2013-06-15 19:58:00,78.6,62.6,30.06,East,90,0.0,0.0,58,0.00,,CLR,0.00,VWS V12.08,2013-06-15 23:58:00,
2013-06-15 20:03:00,77.9,62.4,30.07,East,90,0.0,0.0,59,0.00,,CLR,0.00,VWS V12.08,2013-06-16 00:03:00,
2013-06-15 20:08:00,77.4,62.4,30.06,East,90,0.0,0.0,60,0.00,,CLR,0.00,VWS V12.08,2013-06-16 00:08:00,
2013-06-15 20:13:00,76.8,61.9,30.06,ENE,68,0.0,0.0,60,0.00,,CLR,0.00,VWS V12.08,2013-06-16 00:13:00,
2013-06-15 20:18:00,76.3,61.9,30.06,East,90,0.0,0.0,61,0.00,,CLR,0.00,VWS V12.08,2013-06-16 00:18:00,
2013-06-15 20:23:00,75.7,61.3,30.06,East,90,0.0,0.0,61,0.00,,CLR,0.00,VWS V12.08,2013-06-16 00:23:00,
2013-06-15 20:28:00,75.4,61.5,30.06,ENE,68,0.0,0.7,62,0.00,,CLR,0.00,VWS V12.08,2013-06-16 00:28:00,
2013-06-15 20:33:00,75.0,61.1,30.06,ENE,68,0.0,0.7,62,0.00,,CLR,0.00,VWS V12.08,2013-06-16 00:33:00,
2013-06-15 20:38:00,74.8,61.4,30.06,East,90,0.0,0.7,63,0.00,,CLR,0.00,VWS V12.08,2013-06-16 00:38:00,
2013-06-15 20:43:00,74.5,61.1,30.06,East,90,0.0,0.0,63,0.00,,CLR,0.00,VWS V12.08,2013-06-16 00:43:00,
2013-06-15 20:48:00,74.1,61.2,30.06,East,90,0.0,0.0,64,0.00,,CLR,0.00,VWS V12.08,2013-06-16 00:48:00,
2013-06-15 20:53:00,73.9,61.0,30.06,East,90,0.0,0.0,64,0.00,,CLR,0.00,VWS V12.08,2013-06-16 00:53:00,
2013-06-15 20:58:00,73.6,60.7,30.06,East,90,0.0,0.0,64,0.00,,CLR,0.00,VWS V12.08,2013-06-16 00:58:00,
2013-06-15 21:03:00,73.2,60.8,30.06,ENE,68,1.3,3.1,65,0.00,,CLR,0.00,VWS V12.08,2013-06-16 01:03:00,
2013-06-15 21:08:00,73.2,60.8,30.06,ENE,68,0.0,3.1,65,0.00,,CLR,0.00,VWS V12.08,2013-06-16 01:08:00,
2013-06-15 21:13:00,73.0,61.0,30.06,ENE,68,0.0,3.1,66,0.00,,CLR,0.00,VWS V12.08,2013-06-16 01:13:00,
2013-06-15 21:18:00,72.7,60.7,30.06,ENE,68,0.0,3.1,66,0.00,,CLR,0.00,VWS V12.08,2013-06-16 01:18:00,
2013-06-15 21:23:00,72.3,60.8,30.05,ENE,68,0.0,0.0,67,0.00,,CLR,0.00,VWS V12.08,2013-06-16 01:23:00,
2013-06-15 21:28:00,72.1,60.6,30.06,East,90,0.0,0.0,67,0.00,,CLR,0.00,VWS V12.08,2013-06-16 01:28:00,
2013-06-15 21:33:00,72.0,60.8,30.06,East,90,0.0,1.8,68,0.00,,CLR,0.00,VWS V12.08,2013-06-16 01:33:00,
2013-06-15 21:38:00,71.6,60.5,30.06,ENE,68,0.0,1.8,68,0.00,,CLR,0.00,VWS V12.08,2013-06-16 01:38:00,
2013-06-15 21:43:00,71.4,60.3,30.06,ENE,68,0.0,0.0,68,0.00,,CLR,0.00,VWS V12.08,2013-06-16 01:43:00,
2013-06-15 21:48:00,71.4,60.3,30.06,East,90,0.0,0.0,68,0.00,,CLR,0.00,VWS V12.08,2013-06-16 01:48:00,
2013-06-15 21:53:00,71.2,60.2,30.06,East,90,0.0,0.0,68,0.00,,CLR,0.00,VWS V12.08,2013-06-16 01:53:00,
2013-06-15 21:58:00,71.2,60.2,30.07,East,90,0.0,0.0,68,0.00,,CLR,0.00,VWS V12.08,2013-06-16 01:58:00,
2013-06-15 22:03:00,70.9,59.8,30.07,East,90,0.0,0.0,68,0.00,,CLR,0.00,VWS V12.08,2013-06-16 02:03:00,
2013-06-15 22:08:00,70.9,59.8,30.07,East,90,0.0,0.0,68,0.00,,CLR,0.00,VWS V12.08,2013-06-16 02:08:00,
2013-06-15 22:13:00,70.7,59.6,30.07,East,90,0.0,0.0,68,0.00,,CLR,0.00,VWS V12.08,2013-06-16 02:13:00,
2013-06-15 22:18:00,70.7,59.6,30.08,East,90,0.0,2.5,68,0.00,,CLR,0.00,VWS V12.08,2013-06-16 02:18:00,
2013-06-15 22:23:00,70.5,59.5,30.08,East,90,0.0,1.1,68,0.00,,CLR,0.00,VWS V12.08,2013-06-16 02:23:00,
2013-06-15 22:28:00,70.5,59.5,30.08,North,0,0.0,1.1,68,0.00,,CLR,0.00,VWS V12.08,2013-06-16 02:28:00,
2013-06-15 22:33:00,70.5,59.5,30.08,ENE,68,1.3,1.3,68,0.00,,CLR,0.00,VWS V12.08,2013-06-16 02:33:00,
2013-06-15 22:38:00,70.5,59.9,30.08,East,90,0.9,1.3,69,0.00,,CLR,0.00,VWS V12.08,2013-06-16 02:38:00,
2013-06-15 22:43:00,70.5,59.9,30.08,ENE,68,0.0,1.6,69,0.00,,CLR,0.00,VWS V12.08,2013-06-16 02:43:00,
2013-06-15 22:48:00,70.5,59.5,30.08,ENE,68,0.0,1.6,68,0.00,,CLR,0.00,VWS V12.08,2013-06-16 02:48:00,
2013-06-15 22:53:00,70.5,59.5,30.08,ESE,112,0.0,3.1,68,0.00,,CLR,0.00,VWS V12.08,2013-06-16 02:53:00,
2013-06-15 22:58:00,70.7,59.6,30.08,ENE,68,0.0,3.1,68,0.00,,CLR,0.00,VWS V12.08,2013-06-16 02:58:00,
2013-06-15 23:03:00,70.7,59.2,30.08,ESE,112,0.0,3.1,67,0.00,,CLR,0.00,VWS V12.08,2013-06-16 03:03:00,
2013-06-15 23:08:00,70.9,59.4,30.09,NNE,22,0.0,3.1,67,0.00,,CLR,0.00,VWS V12.08,2013-06-16 03:08:00,
2013-06-15 23:13:00,70.9,59.4,30.08,West,270,0.0,3.1,67,0.00,,CLR,0.00,VWS V12.08,2013-06-16 03:13:00,
2013-06-15 23:18:00,70.9,59.4,30.09,East,90,0.0,3.1,67,0.00,,CLR,0.00,VWS V12.08,2013-06-16 03:18:00,
2013-06-15 23:23:00,70.9,59.4,30.09,ESE,112,0.0,0.0,67,0.00,,CLR,0.00,VWS V12.08,2013-06-16 03:23:00,
2013-06-15 23:28:00,70.7,59.2,30.09,ESE,112,0.0,0.0,67,0.00,,CLR,0.00,VWS V12.08,2013-06-16 03:28:00,
2013-06-15 23:33:00,70.7,59.2,30.09,ESE,112,0.0,0.0,67,0.00,,CLR,0.00,VWS V12.08,2013-06-16 03:33:00,
2013-06-15 23:38:00,70.5,59.0,30.09,North,0,0.0,0.0,67,0.00,,CLR,0.00,VWS V12.08,2013-06-16 03:38:00,
2013-06-15 23:43:00,70.7,58.8,30.09,ENE,68,0.0,0.0,66,0.00,,CLR,0.00,VWS V12.08,2013-06-16 03:43:00,
2013-06-15 23:48:00,70.7,58.4,30.10,West,270,0.0,0.0,65,0.00,,CLR,0.00,VWS V12.08,2013-06-16 03:48:00,
2013-06-15 23:53:00,70.9,58.5,30.10,North,0,0.0,0.0,65,0.00,,CLR,0.00,VWS V12.08,2013-06-16 03:53:00,
2013-06-15 23:58:00,70.9,58.5,30.09,North,0,0.0,0.0,65,0.00,,CLR,0.00,VWS V12.08,2013-06-16 03:58:00,